Regional Weather Roundup
Issued by NWS Sioux Falls, SD

Home | Current Version | Previous Version | Text Only | Print | Product List | Glossary On
Versions: 1 2 3 4 5 6 7 8 9 10 11 12 13 14 15 16 17 18 19 20 21 22 23 24 25 26 27 28 29 30 31 32 33 34 35 36 37 38 39 40 41 42 43 44 45 46 47 48 49 50
000
ASUS43 KFSD 271302
RWRFSD

WEATHER ROUNDUP FOR SE SOUTH DAKOTA/SW MINNESOTA/NW IOWA
NATIONAL WEATHER SERVICE SIOUX FALLS SD
800 AM CDT WED JUL 27 2016

NOTE: "FAIR" INDICATES FEW OR NO CLOUDS BELOW 12,000 FEET WITH NO
SIGNIFICANT WEATHER AND OR OBSTRUCTIONS TO VISIBILITY.


SDZ038>040-050-052>070-271400-
SOUTHEAST SOUTH DAKOTA

CITY           SKY/WX    TMP DP  RH WIND       PRES   REMARKS
BROOKINGS      LGT RAIN  67  64  90 E7        29.97F
CHAMBERLAIN    SUNNY     70  62  77 CALM      30.02S
HURON          SUNNY     69  65  86 N7        29.98S
MADISON        FAIR      66  66 100 N13       29.98S
MITCHELL       MOSUNNY   71  65  81 NW9       29.98S
SIOUX FALLS    PTSUNNY   73  64  73 NW5       29.98R
WINNER         FAIR      68  59  73 W7        30.04R
YANKTON        CLOUDY    70  61  73 NW5       29.98R
$$

MNZ071-072-080-081-089-090-097-098-271400-
SOUTHWEST MINNESOTA

CITY           SKY/WX    TMP DP  RH WIND       PRES   REMARKS
FAIRMONT       CLOUDY    70  64  83 SE7       29.99R
JACKSON        CLOUDY    72  64  78 S6        30.00S
LUVERNE        CLOUDY    68  63  83 CALM      29.98F
MARSHALL       CLOUDY    69  68  96 NW3       29.96R
MONTEVIDEO     CLOUDY    66  66 100 S6        29.93F
REDWOOD FALLS  CLOUDY    72  66  81 SW5       29.95R
TRACY          CLOUDY    72  68  89 SW6       29.98R
WINDOM         CLOUDY    72  64  78 S10       29.99R
WORTHINGTON    PTSUNNY   70  66  87 CALM      29.99S
$$

IAZ001>003-012>014-020>022-031-032-NEZ013-014-SDZ071-271400-
NORTHWEST IOWA

CITY           SKY/WX    TMP DP  RH WIND       PRES   REMARKS
CHEROKEE       CLOUDY    69  67  94 N8        29.99R
DENISON        CLOUDY    68  66  94 SW7       29.97R
ESTHERVILLE    CLOUDY    67  66  97 S6        29.98F
LE MARS        CLOUDY    72  68  88 CALM      29.98S
SHELDON        CLOUDY    70  68  94 CALM      29.98R
SIOUX CITY     CLOUDY    73  67  81 E7        29.99R
SPENCER        PTSUNNY   68  65  90 SE3       30.00R
STORM LAKE     CLOUDY    70  66  88 W6        30.00R
$$

ABBREVIATIONS USED IN REMARKS
   TC - TEMPERATURE IN CELSIUS
  WCI - WIND CHILL INDEX
   HX - HEAT INDEX
  VSB - VISIBILITY





USA.gov is the U.S. government's official web portal to all federal, state and local government web resources and services.